This is the latest recevied weather packets stored in our database for station/object WA6OOO. If no packets are shown the sender has not sent any weather packets the latest 10 day(s).
| Time | Temp. | Humidity | Pressure | Rain* | Wind** | Luminosity | Snow |
|---|---|---|---|---|---|---|---|
| 1788686354 | 20° C | 68% | 1016 hPa | 0 mm | - | 0 W/m² | - |
| 1788686050 | 20.56° C | 67% | 1016.1 hPa | 0 mm | - | 0 W/m² | - |
| 1788685746 | 20.56° C | 64% | 1016.1 hPa | 0 mm | - | 0 W/m² | - |
| 1788685446 | 20.56° C | 64% | 1015.9 hPa | 0 mm | - | 0 W/m² | - |
| 1788685140 | 20.56° C | 62% | 1016.1 hPa | 0 mm | - | 0 W/m² | - |
| 1788684839 | 21.11° C | 60% | 1016.1 hPa | 0 mm | - | 0 W/m² | - |
| 1788684539 | 21.11° C | 58% | 1016 hPa | 0 mm | - | 0 W/m² | - |
| 1788684234 | 21.11° C | 59% | 1015.9 hPa | 0 mm | - | 0 W/m² | - |
| 1788683928 | 20.56° C | 60% | 1016 hPa | 0 mm | - | 0 W/m² | - |
| 1788683624 | 20.56° C | 62% | 1016.1 hPa | 0 mm | - | 0 W/m² | - |
| 1788683323 | 20° C | 63% | 1015.9 hPa | 0 mm | - | 0 W/m² | - |
| 1788683018 | 20° C | 65% | 1016.2 hPa | 0 mm | - | 0 W/m² | - |
| 1788682715 | 20° C | 66% | 1016.4 hPa | 0 mm | - | 0 W/m² | - |
| 1788682410 | 20° C | 67% | 1016.2 hPa | 0 mm | - | 0 W/m² | - |
| 1788682106 | 20° C | 69% | 1016.4 hPa | 0 mm | - | 0 W/m² | - |
| 1788681802 | 20° C | 70% | 1016.4 hPa | 0 mm | - | 0 W/m² | - |
| 1788681502 | 20° C | 71% | 1016.5 hPa | 0 mm | - | 0 W/m² | - |
| 1788681202 | 19.44° C | 71% | 1016.6 hPa | 0 mm | - | 0 W/m² | - |
| 1788680897 | 18.89° C | 74% | 1016.4 hPa | 0 mm | - | 0 W/m² | - |
| 1788680597 | 18.89° C | 75% | 1016.4 hPa | 0 mm | - | 0 W/m² | - |
| 1788680296 | 19.44° C | 75% | 1016.4 hPa | 0 mm | - | 0 W/m² | - |
| 1788679991 | 18.89° C | 76% | 1016.5 hPa | 0 mm | - | 0 W/m² | - |
| 1788679687 | 18.89° C | 76% | 1016.5 hPa | 0 mm | - | 0 W/m² | - |
| 1788679383 | 18.89° C | 77% | 1016.5 hPa | 0 mm | - | 0 W/m² | - |
| 1788679078 | 18.89° C | 77% | 1016.6 hPa | 0 mm | - | 0 W/m² | - |
* Rain latest hour (hover to see other rain measurements)
** Current wind speed in m/s (hover to see current wind gust speed)